Canyon City, OR

2:36 AM PDT on September 25, 2016 (GMT -0700)
Grant County Regional

Weather History for KGCD - December, 2012

Change the Weather History Date:

Wednesday, December 5, 2012

  Actual Average (KBNO) Record (KBNO)
Temperature  
Mean Temperature 42 °F 26 °F  
Max Temperature 50 °F 36 °F 60 °F (1939)
Min Temperature 35 °F 16 °F -14 °F (1972)
Degree Days  
Heating Degree Days 22 39  
Month to date heating degree days 193  
Since 1 July heating degree days 2194  
Cooling Degree Days 0 0  
Month to date cooling degree days 0  
Year to date cooling degree days 215  
Moisture  
Dew Point 35 °F    
Average Humidity 74    
Maximum Humidity 87    
Minimum Humidity 54    
Precipitation  
Precipitation 0.00 in 0.05 in 0.51 in (1995)
Month to date precipitation 0.25  
Year to date precipitation 9.62  
Sea Level Pressure  
Sea Level Pressure 30.06 in    
Wind  
Wind Speed 12 mph (WSW)    
Max Wind Speed 25 mph    
Max Gust Speed 34 mph    
Visibility 10 miles    
Events Rain    
T = Trace of Precipitation, MM = Missing Value Source: NWS Daily Summary

Daily Weather History Graph

Daily Weather History Graph

Search for Another Location

Airport or City:

Trip Planner

Search our weather history database for the weather conditions in past years. The results will help you decide how hot, cold, wet, or windy it might be!

Date:

Astronomy

Dec. 05, 2012 Rise Set
Actual Time 7:16 AM PST 4:16 PM PST
Civil Twilight 6:43 AM PST 4:49 PM PST
Nautical Twilight 6:07 AM PST 5:26 PM PST
Astronomical Twilight 5:32 AM PST 6:01 PM PST
Moon 11:23 PM PST (12/5) 11:31 AM PST (12/5)
Length of Visible Light 10h 05m
Length of Day
8h 59m
Waning Gibbous, 58% of the Moon is Illuminated
Dec 5
Waning Gibbous
Dec 6
Last Quarter
Dec 13
New
Dec 19
First Quarter
Dec 28
Full

Hourly Weather History & Observations

Time (PST) Temp. Windchill Dew Point Humidity Pressure Visibility Wind Dir Wind Speed Gust Speed Precip Events Conditions
12:15 AM 48.2 °F - 41.0 °F 76% 29.92 in 10.0 mi SSW 17.3 mph 24.2 mph N/A Rain Rain
12:35 AM 46.4 °F 38.7 °F 41.0 °F 81% 29.91 in 10.0 mi SSW 20.7 mph 26.5 mph N/A   Light Drizzle
12:55 AM 48.2 °F - 41.0 °F 76% 29.92 in 10.0 mi SSW 17.3 mph 23.0 mph N/A   Overcast
1:15 AM 46.4 °F 39.8 °F 41.0 °F 81% 29.92 in 10.0 mi SW 16.1 mph - N/A   Light Drizzle
1:35 AM 48.2 °F - 41.0 °F 76% 29.91 in 10.0 mi SSW 19.6 mph 27.6 mph N/A   Light Drizzle
1:55 AM 48.2 °F - 41.0 °F 76% 29.92 in 10.0 mi SSW 19.6 mph 28.8 mph N/A   Overcast
2:15 AM 50.0 °F - 41.0 °F 71% 29.93 in 10.0 mi SSW 18.4 mph 32.2 mph N/A   Overcast
2:35 AM 50.0 °F - 41.0 °F 71% 29.92 in 10.0 mi SSW 25.3 mph 31.1 mph N/A   Overcast
2:55 AM 48.2 °F - 41.0 °F 76% 29.92 in 10.0 mi SSW 24.2 mph 34.5 mph N/A   Overcast
3:15 AM 50.0 °F - 39.2 °F 66% 29.94 in 10.0 mi SSW 18.4 mph 27.6 mph N/A   Overcast
3:35 AM 50.0 °F - 39.2 °F 66% 29.94 in 10.0 mi SSW 17.3 mph 32.2 mph N/A   Overcast
3:55 AM 48.2 °F - 39.2 °F 71% 29.95 in 10.0 mi SSW 11.5 mph 20.7 mph N/A   Overcast
4:15 AM 50.0 °F - 39.2 °F 66% 29.95 in 10.0 mi SSW 10.4 mph 24.2 mph N/A   Overcast
4:35 AM 50.0 °F - 37.4 °F 62% 29.96 in 10.0 mi SSW 16.1 mph 20.7 mph N/A   Overcast
4:55 AM 48.2 °F - 39.2 °F 71% 29.96 in 10.0 mi SSW 9.2 mph - N/A   Overcast
6:35 AM 46.4 °F 40.4 °F 39.2 °F 76% 29.99 in 10.0 mi SW 13.8 mph 18.4 mph N/A   Drizzle
6:55 AM 46.4 °F 41.1 °F 37.4 °F 71% 30.01 in 10.0 mi SW 11.5 mph - N/A   Overcast
7:15 AM 46.4 °F 42.4 °F 39.2 °F 76% 30.02 in 10.0 mi SW 8.1 mph - N/A   Overcast
7:35 AM 46.4 °F 42.4 °F 37.4 °F 71% 30.02 in 10.0 mi West 8.1 mph - N/A   Overcast
7:55 AM 46.4 °F 42.4 °F 37.4 °F 71% 30.03 in 10.0 mi WSW 8.1 mph - N/A   Mostly Cloudy
8:15 AM 46.4 °F 42.4 °F 37.4 °F 71% 30.04 in 10.0 mi WSW 8.1 mph - N/A   Mostly Cloudy
8:35 AM 46.4 °F 41.9 °F 37.4 °F 71% 30.05 in 10.0 mi WSW 9.2 mph - N/A   Overcast
8:55 AM 46.4 °F 41.1 °F 37.4 °F 71% 30.06 in 10.0 mi West 11.5 mph - N/A   Overcast
9:15 AM 44.6 °F 38.4 °F 39.2 °F 81% 30.06 in 10.0 mi WSW 12.7 mph - N/A   Overcast
9:35 AM 44.6 °F 38.4 °F 39.2 °F 81% 30.07 in 10.0 mi West 12.7 mph - N/A   Scattered Clouds
9:55 AM 44.6 °F 39.7 °F 37.4 °F 76% 30.08 in 10.0 mi WSW 9.2 mph - N/A   Clear
10:15 AM 44.6 °F 39.7 °F 37.4 °F 76% 30.09 in 7.0 mi WSW 9.2 mph - N/A   Clear
10:35 AM 44.6 °F 39.7 °F 35.6 °F 71% 30.09 in 10.0 mi WSW 9.2 mph - N/A   Scattered Clouds
10:55 AM 42.8 °F 38.0 °F 35.6 °F 76% 30.09 in 10.0 mi WSW 8.1 mph - N/A   Scattered Clouds
11:15 AM 46.4 °F 41.9 °F 35.6 °F 66% 30.09 in 10.0 mi WSW 9.2 mph - N/A   Scattered Clouds
11:35 AM 46.4 °F 41.9 °F 35.6 °F 66% 30.09 in 10.0 mi West 9.2 mph - N/A   Scattered Clouds
11:55 AM 46.4 °F 41.5 °F 33.8 °F 62% 30.08 in 10.0 mi West 10.4 mph - N/A   Scattered Clouds
12:15 PM 46.4 °F 40.7 °F 33.8 °F 62% 30.07 in 10.0 mi West 12.7 mph - N/A   Clear
12:35 PM 46.4 °F 41.9 °F 33.8 °F 62% 30.07 in 10.0 mi West 9.2 mph - N/A   Clear
12:55 PM 48.2 °F - 33.8 °F 58% 30.07 in 10.0 mi West 9.2 mph - N/A   Clear
1:15 PM 46.4 °F 41.9 °F 32.0 °F 57% 30.07 in 10.0 mi West 9.2 mph - N/A   Clear
1:35 PM 46.4 °F 41.9 °F 32.0 °F 57% 30.08 in 10.0 mi WSW 9.2 mph - N/A   Clear
1:55 PM 48.2 °F - 32.0 °F 54% 30.07 in 10.0 mi West 8.1 mph - N/A   Clear
2:15 PM 46.4 °F 44.3 °F 32.0 °F 57% 30.08 in 10.0 mi WSW 4.6 mph - N/A   Clear
2:35 PM 48.2 °F - 32.0 °F 54% 30.08 in 10.0 mi WSW 6.9 mph - N/A   Scattered Clouds
2:55 PM 46.4 °F 41.9 °F 32.0 °F 57% 30.09 in 10.0 mi West 9.2 mph - N/A   Mostly Cloudy
3:15 PM 44.6 °F 39.2 °F 33.8 °F 66% 30.10 in 10.0 mi West 10.4 mph - N/A   Overcast
3:35 PM 44.6 °F 40.2 °F 33.8 °F 66% 30.10 in 10.0 mi NW 8.1 mph - N/A   Overcast
3:55 PM 42.8 °F 38.0 °F 33.8 °F 70% 30.10 in 10.0 mi NW 8.1 mph - N/A   Mostly Cloudy
4:15 PM 41.0 °F 38.0 °F 32.0 °F 70% 30.10 in 10.0 mi NNW 4.6 mph - N/A   Mostly Cloudy
4:35 PM 39.2 °F 35.0 °F 32.0 °F 75% 30.10 in 10.0 mi NNW 5.8 mph - N/A   Scattered Clouds
4:55 PM 37.4 °F - 32.0 °F 81% 30.10 in 10.0 mi Calm Calm - N/A   Clear
5:15 PM 39.2 °F - 32.0 °F 75% 30.11 in 10.0 mi Calm Calm - N/A   Scattered Clouds
5:35 PM 37.4 °F 34.9 °F 32.0 °F 81% 30.12 in 10.0 mi SW 3.5 mph - N/A   Mostly Cloudy
5:55 PM 37.4 °F 34.9 °F 32.0 °F 81% 30.12 in 10.0 mi WSW 3.5 mph - N/A   Scattered Clouds
6:15 PM 37.4 °F - 32.0 °F 81% 30.12 in 10.0 mi Calm Calm - N/A   Mostly Cloudy
6:35 PM 37.4 °F - 32.0 °F 81% 30.12 in 10.0 mi Calm Calm - N/A   Overcast
6:55 PM 37.4 °F 34.9 °F 32.0 °F 81% 30.12 in 10.0 mi WSW 3.5 mph - N/A   Overcast
7:15 PM 35.6 °F 30.7 °F 32.0 °F 87% 30.12 in 10.0 mi SW 5.8 mph - N/A   Overcast
7:35 PM 35.6 °F 30.7 °F 32.0 °F 87% 30.12 in 10.0 mi WSW 5.8 mph - N/A   Overcast
7:55 PM 35.6 °F 30.7 °F 32.0 °F 87% 30.13 in 10.0 mi WSW 5.8 mph - N/A   Overcast
8:15 PM 35.6 °F 30.7 °F 32.0 °F 87% 30.12 in 10.0 mi WSW 5.8 mph - N/A   Overcast
8:35 PM 35.6 °F 29.9 °F 32.0 °F 87% 30.12 in 10.0 mi WSW 6.9 mph - N/A   Overcast
8:55 PM 35.6 °F 29.9 °F 32.0 °F 87% 30.13 in 10.0 mi WSW 6.9 mph - N/A   Overcast
9:15 PM 35.6 °F 29.9 °F 32.0 °F 87% 30.13 in 10.0 mi WSW 6.9 mph - N/A   Overcast
9:35 PM 35.6 °F 29.9 °F 32.0 °F 87% 30.14 in 10.0 mi WSW 6.9 mph - N/A   Overcast
9:55 PM 35.6 °F 30.7 °F 32.0 °F 87% 30.14 in 10.0 mi West 5.8 mph - N/A   Overcast
10:15 PM 35.6 °F 31.7 °F 32.0 °F 87% 30.13 in 10.0 mi West 4.6 mph - N/A   Overcast
10:35 PM 35.6 °F 30.7 °F 32.0 °F 87% 30.13 in 10.0 mi West 5.8 mph - N/A   Overcast
10:55 PM 35.6 °F 31.7 °F 32.0 °F 87% 30.14 in 10.0 mi West 4.6 mph - N/A   Overcast
11:15 PM 35.6 °F 29.9 °F 32.0 °F 87% 30.14 in 10.0 mi West 6.9 mph - N/A   Overcast
11:35 PM 35.6 °F 29.9 °F 32.0 °F 87% 30.14 in 10.0 mi WSW 6.9 mph - N/A   Overcast
11:55 PM 35.6 °F 29.2 °F 32.0 °F 87% 30.14 in 10.0 mi WSW 8.1 mph - N/A   Overcast